Flag for Netherlands Weather past 2 weeks in Zwolle, Netherlands

Now
41 °F

Clear.


Feels Like: 36 °F
Forecast: 36 / 50 °F
Wind: 7 mph from West

Location: Amsterdam Schiphol Airport

Current Time: Mar 27, 2015 at 8:31:27 PM

Latest Report: Mar 27, 2015 at 7:55 PM


Visibility: 10 mi

Pressure: 30.18 "Hg

Humidity: 87%

Dew point: 37 °F

Location of ZwolleLocation

Historic Weather in Zwolle — Graph

°F

Zwolle temperature yesterday

Maximum temperature yesterday: 46 °F (at 8:25 PM)
Minimum temperature yesterday: 32 °F (at 2:55 AM)
Average temperature yesterday: 40 °F

Past Weeks' High & Low Weather Summary

 TemperatureHumidityPressure
High59 °F (Mar 17, 1:25 PM)100% (Mar 17, 4:55 AM)30.42 "Hg (Mar 17, 4:55 AM)
Low28 °F (Mar 23, 6:55 AM)48% (Mar 17, 1:55 PM)29.62 "Hg (Mar 26, 2:55 PM)
Average42 °F82%30.14 "Hg
* Reported Mar 12 7:25 PM — Mar 27 7:25 PM, Zwolle, Weather by CustomWeather, © 2015

Note: Actual official high and low records may vary slightly from our data, if they occured in-between our weather recording intervals... More about our weather records

Advertising

Zwolle weather history for previous 24 hours

 ConditionsComfort  
Time TempWeatherWind HumidityBarometerVisibility
7:25 PM
Fri, Mar 27
41 °FPassing clouds.9 mph87%30.15 "HgN/A
6:55 PM43 °FPassing clouds.14 mph81%30.15 "HgN/A
6:25 PM43 °FPassing clouds.13 mph87%30.15 "HgN/A
5:55 PM45 °FScattered clouds.13 mph81%30.12 "HgN/A
5:25 PM46 °FScattered clouds.16 mph76%30.12 "HgN/A
4:55 PM46 °FScattered clouds.16 mph76%30.12 "HgN/A
4:25 PM46 °FScattered clouds.16 mph76%30.12 "HgN/A
3:55 PM46 °FBroken clouds.16 mph76%30.09 "HgN/A
3:25 PM46 °FPartly sunny.17 mph82%30.09 "HgN/A
2:55 PM46 °FPartly sunny.20 mph76%30.09 "HgN/A
2:25 PM46 °FBroken clouds.20 mph82%30.07 "HgN/A
1:55 PM46 °FPartly sunny.20 mph82%30.07 "HgN/A
1:25 PM46 °FBroken clouds.21 mph82%30.07 "HgN/A
12:55 PM45 °FSprinkles. Broken clouds.21 mph81%30.04 "HgN/A
12:25 PM46 °FBroken clouds.22 mph82%30.04 "HgN/A
11:55 AM46 °FScattered showers. Partly sunny.22 mph82%30.01 "HgN/A
11:25 AM45 °FSprinkles. Broken clouds.23 mph87%30.01 "HgN/A
10:55 AM45 °FScattered showers. Broken clouds.23 mph81%30.01 "HgN/A
10:25 AM45 °FSprinkles. Partly sunny.22 mph81%29.98 "HgN/A
9:55 AM45 °FScattered showers. Broken clouds.24 mph81%29.98 "HgN/A
9:25 AM45 °FScattered showers. Partly sunny.21 mph81%29.95 "HgN/A
8:55 AM45 °FScattered showers. Partly sunny.23 mph81%29.95 "HgN/A
8:25 AM43 °FSprinkles. Broken clouds.14 mph87%29.92 "HgN/A
7:55 AM43 °FSprinkles. Broken clouds.14 mph87%29.92 "HgN/A
7:25 AM43 °FScattered showers. Scattered clouds.17 mph87%29.89 "HgN/A
6:55 AM43 °FSprinkles. Broken clouds.23 mph81%29.89 "HgN/A
6:25 AM43 °FScattered showers. Partly cloudy.21 mph87%29.86 "HgN/A
5:55 AM43 °FSprinkles. Partly cloudy.20 mph87%29.86 "HgN/A
5:25 AM43 °FSprinkles. Passing clouds.17 mph87%29.83 "HgN/A
4:55 AM43 °FRain showers. Partly cloudy.20 mph87%29.83 "Hg4 mi
3:55 AM43 °FScattered showers. Passing clouds.22 mph81%29.80 "HgN/A
3:25 AM45 °FPassing clouds.20 mph81%29.80 "HgN/A
2:55 AM45 °FPassing clouds.21 mph81%29.77 "HgN/A
2:25 AM45 °FPassing clouds.20 mph81%29.77 "HgN/A
1:55 AM45 °FSprinkles. Passing clouds.18 mph81%29.77 "HgN/A
1:25 AM45 °FSprinkles. Passing clouds.18 mph81%29.77 "HgN/A
12:55 AM45 °FScattered showers. Passing clouds.18 mph81%29.77 "HgN/A
12:25 AM45 °FSprinkles. Passing clouds.20 mph81%29.74 "HgN/A
11:55 PM
Thu, Mar 26
45 °FScattered showers. Passing clouds.18 mph76%29.74 "HgN/A
11:25 PM45 °FPassing clouds.17 mph81%29.71 "HgN/A
10:55 PM45 °FPassing clouds.14 mph87%29.71 "HgN/A
10:25 PM45 °FPassing clouds.13 mph87%29.71 "HgN/A
9:55 PM45 °FPassing clouds.14 mph87%29.68 "HgN/A
9:25 PM45 °FSprinkles. Partly cloudy.17 mph87%29.68 "Hg5 mi
8:55 PM45 °FSprinkles. Passing clouds.20 mph87%29.68 "HgN/A
8:25 PM46 °FPassing clouds.13 mph87%29.65 "HgN/A
Weather by CustomWeather, © 2015

See weather overviewHow to use our weather pages